Location: *
(49.5667°N, 1.3667°W)
Time: 06:42:06
(UTC+00:00)

Cosmos 2297 Rocket - Pass Details

Date: 20 September 2019
Orbit: 841 x 842 km, 71.0° (Epoch: 14 October)

Event Time Altitude Azimuth Distance (km) Brightness Sun altitude
Rises 20:25:18 0° 212° (SSW) 3,388 5.4 -22.0°
Reaches altitude 10° 20:27:44 10° 214° (SW) 2,457 4.6 -22.3°
Maximum altitude 20:33:23 75° 300° (WNW) 877 2.3 -23.1°
Drops below altitude 10° 20:39:03 10° 26° (NNE) 2,472 4.7 -23.9°
Sets 20:41:31 0° 29° (NNE) 3,410 5.4 -24.2°
